Wind_Speed
12 23 28 28 28 37 33 33 32 33 33 29 28 25 26 21 19 18 17 17 16 16 14 13 13 11 11 11 11 11 15 15 12 13 12 8 6 5 7 7 7 9 9
8 14 24 30 31 33 42 38 34 35 36 35 34 31 28 23 22 20 19 19 17 17 15 14 14 13 15 14 13 13 14 13 12 6 11 2 3 5 5 5 6 7 7
10 8 18 27 30 30 33 35 42 44 41 36 33 27 24 22 22 22 20 20 19 19 15 14 14 12 12 13 12 12 10 8 8 5 4 2 3 8 6 6 6 7 6
8 8 12 24 29 31 34 38 40 39 41 44 42 38 34 28 27 31 24 21 19 20 16 15 14 14 13 13 13 13 9 9 11 8 5 5 5 3 2 7 6 7 6
10 10 9 23 30 30 34 38 36 39 41 43 36 41 36 30 27 29 27 26 22 21 21 19 16 16 13 13 13 13 11 10 9 7 7 7 8 7 4 2 5 9 7
12 11 20 18 28 31 31 31 33 36 38 39 39 42 44 38 33 30 30 29 26 24 23 21 20 18 16 14 13 13 12 12 11 10 8 7 3 3 5 4 3 5 6
4 4 11 9 21 27 30 32 29 31 37 39 39 39 41 40 40 39 35 34 30 26 25 24 22 20 18 16 14 14 12 12 11 9 10 8 9 7 7 7 4 2 3
7 7 9 4 18 24 25 27 31 32 35 39 39 36 32 39 45 41 35 34 33 33 28 24 22 19 18 16 15 14 13 12 11 10 9 9 8 7 6 5 3 1 0
6 8 6 6 4 8 18 28 30 32 34 35 32 35 38 34 32 41 41 36 35 32 31 26 24 21 19 17 15 15 13 12 11 11 9 8 7 6 6 6 4 2 1
8 7 6 7 4 8 19 22 26 28 34 37 34 33 38 36 33 34 36 35 34 34 35 31 26 24 20 18 16 15 14 13 11 11 10 9 6 5 5 5 3 3 2
3 4 6 7 7 9 10 19 22 27 28 29 32 32 31 35 37 36 38 38 35 34 34 32 29 26 23 20 19 17 15 14 13 12 11 10 7 7 5 4 2 2 1
5 2 2 4 6 10 12 13 20 18 27 30 30 31 31 33 36 34 37 38 39 36 36 34 32 28 24 21 19 19 16 16 15 12 11 10 7 5 4 3 2 1 1
5 6 5 5 6 9 11 10 17 23 22 26 29 29 34 31 33 33 37 40 39 38 37 36 32 29 25 23 21 20 18 15 15 11 9 8 7 6 1 1 1 2 4
7 5 5 6 8 7 11 11 12 21 22 24 26 28 32 35 34 37 30 35 39 39 38 35 32 31 26 25 24 21 19 16 15 13 9 7 6 4 2 1 1 2 2
8 7 7 6 9 8 9 8 11 16 22 24 23 25 28 30 37 37 37 45 38 38 34 32 30 29 26 24 23 20 18 16 14 11 8 5 3 3 2 2 4 5 5
8 8 8 7 7 12 11 12 18 24 26 25 24 24 30 33 33 36 30 39 34 35 36 37 34 29 25 22 21 20 18 14 13 11 8 4 2 0 2 3 4 4 5
14 14 8 8 13 18 17 16 17 20 23 27 26 28 30 32 30 34 37 34 33 37 33 30 33 30 27 24 21 18 17 15 13 11 9 7 3 1 1 2 2 4 4
16 16 14 8 17 21 18 19 22 24 24 25 26 30 33 34 33 34 36 32 37 37 35 32 28 31 25 23 19 16 14 13 10 8 6 6 4 1 4 3 3 4 6
14 18 24 16 21 23 22 22 23 25 27 25 26 27 35 38 36 35 35 35 38 35 31 33 29 28 22 20 19 15 13 11 8 6 5 5 5 3 2 4 4 7 7
23 23 18 16 21 21 24 22 23 25 25 27 29 32 30 30 32 33 34 32 33 35 32 27 24 23 21 17 17 13 10 11 10 6 3 2 1 2 2 4 6 9 10
23 26 5 10 16 21 21 18 21 22 24 29 29 30 33 33 33 32 33 32 31 31 32 27 21 21 18 16 15 13 9 10 9 8 6 6 4 3 4 6 9 10 11
17 17 8 9 15 17 17 16 17 25 29 31 30 30 30 31 33 37 35 31 31 31 29 27 21 16 13 13 12 12 11 8 9 7 5 4 4 6 7 8 10 10 11
14 12 6 9 10 15 15 17 19 27 31 31 33 32 29 30 32 34 31 28 28 27 22 22 22 17 13 11 9 9 8 7 7 6 3 4 5 4 8 9 9 10 9
10 6 5 7 6 9 14 17 23 23 31 28 29 33 34 31 29 29 27 24 21 22 22 20 19 17 14 11 10 9 8 5 3 2 3 3 4 5 5 6 6 5 6
10 5 4 10 13 20 21 18 21 22 25 31 28 28 30 28 28 26 24 24 20 22 23 20 19 19 16 13 11 9 7 4 4 2 3 4 4 4 4 5 7 10 12
17 17 18 20 19 20 21 22 22 24 21 27 29 25 27 26 26 27 26 21 21 19 17 15 17 13 14 11 7 6 4 3 2 2 2 4 2 5 5 7 9 9 10
Wind_Direction
206 192 187 188 180 179 180 187 187 187 178 178 174 172 176 175 177 179 184 180 182 173 179 176 165 159 150 149 142 144 144 138 132 127 121 116 110 109 110 107 85 84 82
259 187 180 180 181 183 180 181 188 184 184 184 181 181 179 180 179 180 186 180 185 179 181 179 172 170 167 163 159 153 146 147 162 176 149 136 134 119 129 122 86 104 81
231 224 181 180 181 186 185 185 184 183 187 186 178 175 174 174 177 179 184 184 187 180 183 181 175 180 168 164 168 166 156 148 165 163 169 118 168 143 157 142 105 120 90
235 236 189 184 185 189 187 189 186 184 186 185 177 174 174 171 187 188 185 182 188 179 179 179 180 174 178 173 171 174 154 164 147 126 119 107 115 149 128 163 153 134 93
221 232 236 187 189 191 192 191 190 184 187 184 187 176 173 181 185 183 180 182 182 185 181 180 182 177 178 175 169 156 156 159 160 156 137 106 90 82 127 160 165 144 119
208 205 223 224 188 190 187 193 189 187 187 188 190 183 180 174 171 176 180 179 182 183 183 179 179 177 178 175 162 159 158 155 149 136 127 114 129 85 96 102 121 145 117
339 240 202 200 189 191 186 183 190 188 190 191 194 189 185 178 174 176 179 177 179 183 180 182 178 180 177 170 166 160 156 142 133 137 121 121 110 114 101 103 104 134 153
343 351 19 180 173 176 183 183 187 195 193 193 196 193 189 184 179 178 180 177 178 184 178 179 175 179 170 167 167 160 151 146 144 134 124 117 109 112 110 108 107 9 243
19 2 12 138 219 230 192 191 194 197 196 196 195 192 191 187 173 176 181 181 184 183 175 176 172 173 169 169 165 157 144 143 146 132 128 124 116 116 111 109 102 113 110
20 360 356 10 287 242 232 208 203 195 194 191 193 194 190 187 181 177 170 178 182 182 174 170 169 167 165 163 162 148 147 152 140 133 139 123 122 115 111 111 113 105 102
38 26 347 336 317 311 278 220 207 198 191 188 188 187 188 185 183 177 175 177 177 178 171 165 165 162 161 162 159 150 152 149 138 141 141 130 136 120 110 105 97 102 37
201 209 169 291 282 275 286 234 215 212 193 187 185 184 186 182 176 174 172 175 172 173 168 164 159 158 156 158 155 148 154 149 145 148 143 139 147 141 136 110 70 25 319
202 209 187 195 224 263 268 263 207 220 201 185 177 175 177 175 169 170 168 164 164 163 161 157 152 150 152 154 148 152 150 148 143 143 137 135 131 130 130 115 298 306 291
310 243 203 191 191 224 263 261 224 216 191 184 177 173 173 170 167 160 158 151 154 152 155 152 148 148 154 152 154 151 149 149 146 146 144 144 155 166 173 139 23 349 304
304 279 224 199 178 189 242 209 187 175 177 168 167 165 162 157 152 148 157 150 158 158 154 150 152 152 151 150 146 147 155 153 148 140 146 147 170 179 210 255 274 286 301
278 272 224 187 168 168 202 185 173 173 174 164 163 157 153 149 148 149 154 149 156 146 149 154 152 150 148 149 152 154 150 143 140 139 131 120 137 60 358 347 318 314 311
349 341 291 198 170 167 177 173 166 162 155 152 147 143 141 136 137 140 138 138 138 138 141 140 150 142 145 149 147 151 154 152 155 147 150 138 172 342 272 269 289 297 294
332 322 318 230 168 166 168 165 156 146 140 138 139 139 134 131 134 135 140 143 135 140 145 146 147 141 144 146 145 146 152 145 142 149 150 161 164 229 287 303 312 319 318
320 305 296 245 155 154 158 156 151 146 143 141 139 143 143 139 140 140 141 143 138 140 145 144 149 137 139 140 142 143 146 135 140 149 157 163 154 166 288 314 329 322 314
323 314 302 155 147 155 158 159 155 153 151 150 146 148 146 141 140 144 140 140 140 143 146 143 135 141 139 140 140 138 149 146 149 144 152 118 200 243 314 319 314 314 318
320 323 321 135 141 149 159 162 156 153 151 145 144 143 144 140 138 133 133 140 134 139 136 135 138 146 138 136 141 144 161 160 147 147 157 164 204 266 322 320 308 304 306
323 338 43 103 139 146 148 150 153 145 142 139 137 136 138 138 135 133 139 142 140 134 130 135 127 125 140 144 148 157 168 165 151 151 169 199 229 302 319 311 302 295 303
315 335 50 96 133 161 167 161 154 142 137 137 137 132 128 126 130 135 136 136 136 130 130 130 139 142 148 143 152 161 156 144 163 177 192 268 296 304 305 296 301 307 310
339 13 85 101 85 124 137 138 150 152 140 137 131 132 130 131 131 133 134 131 128 131 136 138 142 150 154 156 145 146 132 143 107 121 214 277 285 299 300 317 324 333 339
350 17 62 92 88 98 107 118 127 133 133 128 125 128 130 126 120 118 125 130 137 144 146 148 152 157 158 152 147 147 146 159 162 276 281 286 303 318 347 333 318 314 321
42 60 69 82 88 96 107 119 126 129 125 121 123 122 115 115 114 113 104 104 108 117 125 136 153 137 141 140 149 151 161 183 211 255 290 313 2 350 335 333 334 325 321
Height
730 734 740 748 754 755 765 774 780 786 790 795 801 805 809 812 816 819 822 826 829 832 834 836 838 839 840 843 845 846 846 850 852 855 857 859 861 863 863 864 863 863 863
727 730 734 741 748 753 749 762 774 780 785 789 793 798 804 810 813 816 820 824 827 830 833 835 837 839 839 842 844 846 847 849 851 853 855 860 862 862 864 864 864 864 864
726 726 729 735 741 746 751 756 761 766 777 784 790 796 803 808 811 813 817 820 824 828 831 834 837 839 839 841 843 845 846 848 850 850 852 855 859 860 863 864 865 865 865
723 723 725 729 734 740 744 752 756 762 768 772 777 785 789 796 800 805 812 818 822 825 828 832 835 838 839 841 843 844 845 847 849 850 851 851 851 856 863 863 865 865 866
719 721 721 723 727 735 740 744 750 753 762 765 775 772 779 790 797 802 807 812 818 822 825 829 832 836 838 841 843 844 845 846 848 848 851 851 852 852 854 862 863 864 866
712 714 716 719 723 729 735 742 746 750 756 763 769 766 771 776 788 798 804 806 814 818 822 826 828 833 836 839 842 843 844 845 848 849 850 850 852 854 853 858 861 862 865
709 710 710 712 716 721 727 733 743 746 752 759 763 764 768 769 773 785 795 800 808 814 818 823 826 831 833 837 840 842 844 846 848 850 850 851 853 855 856 857 860 862 863
711 711 713 709 710 716 724 729 735 743 748 753 756 761 767 769 764 771 788 795 800 807 813 821 823 830 832 836 838 841 843 845 849 851 851 853 856 857 858 859 861 864 862
715 715 715 716 719 720 722 726 730 736 740 745 753 757 762 769 763 769 775 787 793 802 807 815 820 826 831 834 838 840 842 845 849 850 853 854 857 858 859 860 861 863 865
721 720 719 720 720 721 723 727 730 731 733 738 746 753 757 762 766 772 770 782 790 796 800 808 815 821 827 833 837 840 842 847 848 850 853 855 857 858 860 861 862 863 863
724 725 725 723 722 721 723 724 727 728 732 738 741 747 753 758 760 767 770 777 783 793 799 803 809 818 825 830 835 837 841 847 848 850 852 855 859 859 860 861 863 864 864
721 721 724 724 723 722 721 721 724 728 729 731 738 743 746 755 757 763 766 771 778 788 794 799 805 814 822 828 832 835 841 844 846 849 850 855 857 859 860 861 863 863 863
718 718 719 721 722 722 721 721 722 726 728 731 735 739 746 751 752 760 765 769 775 783 792 797 802 810 819 825 828 835 839 842 845 850 852 857 857 858 861 861 862 863 863
715 714 715 716 719 720 720 719 719 723 726 730 734 737 742 744 748 755 762 766 775 783 792 794 798 805 817 819 826 831 836 841 843 848 852 855 858 859 861 861 862 862 862
710 710 710 712 714 717 719 718 718 721 726 729 734 737 741 746 748 757 762 756 778 782 785 791 800 807 815 822 824 829 836 837 843 846 848 852 857 858 859 859 860 860 861
707 705 705 706 709 712 718 718 718 719 725 729 733 737 740 744 752 755 771 761 777 779 785 791 795 809 814 819 824 830 835 838 842 844 845 850 855 857 857 858 859 860 859
716 711 706 701 703 707 713 717 719 721 723 727 733 737 741 745 753 759 763 774 773 775 789 798 800 803 815 820 824 830 835 836 841 841 844 849 853 855 855 857 857 858 857
718 712 707 702 700 704 711 716 718 721 725 728 733 737 741 746 755 761 767 781 765 776 788 796 808 806 815 818 824 830 836 836 839 843 845 849 852 852 855 856 856 854 854
719 712 703 698 699 703 709 715 718 721 724 730 733 740 741 745 753 762 769 774 772 784 796 793 809 803 817 818 822 828 835 834 838 842 846 847 849 853 855 855 852 853 852
718 708 697 695 698 704 708 715 716 720 724 728 733 738 746 750 755 762 766 774 779 786 795 803 802 811 818 819 822 827 834 837 839 840 844 845 851 854 852 850 852 851 850
717 709 702 701 703 706 711 716 718 720 725 727 734 740 745 750 757 762 768 779 780 791 791 801 807 814 814 818 821 828 837 838 835 837 843 845 851 852 847 847 850 850 848
719 713 707 706 708 711 714 718 721 722 726 730 736 743 749 753 759 762 773 784 788 790 793 805 808 812 818 820 824 829 836 835 833 837 842 845 848 847 845 846 847 847 846
721 716 713 713 713 714 717 720 725 725 728 734 738 745 752 756 761 768 776 784 787 790 798 802 811 816 820 823 827 830 830 831 835 838 840 843 844 843 843 844 845 843 842
722 720 718 717 718 718 720 724 727 733 731 737 741 746 751 761 768 774 779 782 786 792 798 804 810 816 822 825 825 828 828 833 835 837 840 841 841 841 841 841 841 840 840
725 723 722 722 725 724 726 732 734 738 741 739 746 753 758 766 771 776 782 786 791 793 798 804 810 817 821 823 825 826 830 833 834 836 838 839 839 838 838 838 838 838 837
730 728 729 729 732 733 735 737 741 743 748 746 749 758 761 768 774 779 784 791 795 799 802 807 814 816 818 821 824 828 829 831 833 834 835 836 836 836 837 837 836 836 836